Wetbulb
69.86 68.81 67.54 66.22 66.02 66.05 65.55 66.04 67.27 68.83 68.88 68.12 69.44 68.85 66.99 65.66 63.79 64.63 65.70 64.53 67.82 68.36 67.13 65.92 65.31 64.63 63.92 63.67 63.86 63.84 63.95 64.02 63.87
68.99 67.48 66.21 65.65 65.99 66.14 66.12 66.99 68.37 68.06 68.87 68.35 68.81 66.90 65.76 62.28 62.02 62.70 62.99 64.08 67.81 66.87 65.81 66.22 66.01 64.04 63.43 63.34 63.58 63.74 63.62 63.55 63.52
66.96 65.72 65.19 65.56 65.99 66.73 67.02 67.65 67.64 68.29 67.93 67.10 67.29 65.98 64.81 63.06 61.99 60.55 61.06 66.66 67.10 67.08 67.15 66.21 64.86 63.30 62.82 63.52 63.32 63.55 63.65 63.02 63.16
66.09 65.02 64.70 65.46 66.04 67.81 66.92 67.63 67.70 67.73 65.92 65.07 67.30 65.58 63.97 60.74 61.75 62.06 61.36 67.67 67.88 67.67 66.60 65.27 63.87 62.87 63.28 62.46 61.90 61.49 61.57 61.57 61.45
64.78 65.05 64.99 65.21 66.98 66.84 66.87 67.12 67.15 66.21 64.49 65.92 66.02 65.11 63.29 60.78 62.41 64.02 63.93 67.30 66.99 66.29 65.31 64.53 63.37 62.17 61.60 61.48 61.52 61.65 61.59 61.21 61.45
61.93 62.14 64.42 65.60 66.00 65.04 66.45 66.29 65.95 65.16 63.83 64.78 63.17 61.68 58.55 59.89 62.95 64.79 66.44 66.50 66.30 65.11 64.62 63.35 62.74 61.53 61.37 61.26 61.06 60.81 60.62 60.50 60.26
59.18 60.01 63.54 65.29 65.73 66.24 65.90 65.21 64.16 58.45 52.70 57.83 59.35 56.92 56.61 57.74 60.21 63.29 65.77 65.33 65.02 63.82 62.69 61.63 61.24 60.98 61.01 60.64 60.54 60.27 59.93 59.64 59.37
56.81 57.59 59.67 59.99 62.41 61.87 61.13 60.67 53.86 49.91 50.34 53.27 54.56 54.88 55.26 54.96 56.08 62.83 64.77 64.16 63.75 62.74 61.48 60.92 60.68 60.56 60.40 60.19 59.74 59.28 58.94 58.82 58.57
54.66 55.87 56.53 57.45 59.88 58.23 56.83 54.29 49.86 48.61 50.20 54.02 53.32 53.72 55.06 56.24 57.00 60.58 62.95 63.31 62.74 62.26 61.05 60.51 60.19 60.05 59.73 59.32 58.84 58.41 58.08 57.94 57.64
53.74 54.51 54.90 55.92 56.42 56.83 54.71 52.87 50.87 47.75 52.38 54.28 53.98 53.22 53.43 54.40 55.91 57.90 61.26 62.34 61.74 61.37 60.50 60.61 60.24 59.48 58.89 58.42 57.93 57.49 57.46 57.35 57.00
54.65 53.67 54.15 54.48 55.13 54.71 54.01 52.06 49.16 48.20 52.51 53.24 53.66 52.29 52.47 52.43 52.44 55.17 57.80 61.02 61.50 60.18 59.87 59.52 59.32 59.13 58.72 57.99 57.55 57.12 56.91 56.63 56.36
54.56 54.26 53.23 53.21 53.39 53.56 51.62 48.18 48.12 47.94 52.85 52.34 52.74 51.67 50.13 49.76 49.96 50.33 50.28 53.12 59.03 58.44 58.14 58.17 57.98 57.93 58.03 58.04 57.05 55.88 54.81 54.65 54.80
54.09 53.88 53.58 50.90 50.11 49.94 47.45 48.10 47.41 49.32 51.61 51.64 52.33 50.95 49.69 48.53 47.65 48.28 48.55 47.70 48.42 54.76 56.01 55.74 56.25 57.51 57.76 56.99 55.69 54.48 53.74 53.46 53.34
53.87 53.02 51.03 48.33 47.70 46.47 47.74 46.97 48.70 48.32 49.99 50.64 50.15 50.11 48.51 48.17 47.62 45.97 45.86 46.21 45.12 45.12 52.95 53.93 55.01 55.01 55.28 54.93 54.26 53.04 52.35 52.25 52.63
53.09 51.07 48.80 48.35 46.89 46.09 47.02 46.79 47.27 49.03 49.61 50.38 47.27 46.15 45.93 46.31 44.77 43.98 44.48 42.99 43.92 43.49 42.89 44.05 48.58 51.70 52.34 52.43 51.77 51.54 51.53 51.60 51.90
50.56 49.63 48.24 47.67 47.28 47.07 47.72 46.52 48.20 47.38 48.42 45.06 43.83 43.61 42.74 42.71 42.41 42.49 41.01 41.72 42.44 42.53 41.95 40.45 41.59 43.52 49.83 49.09 48.93 49.89 50.31 50.96 51.08
51.62 50.71 49.40 48.07 46.84 46.16 47.34 47.84 46.53 46.44 46.83 44.95 43.62 40.23 41.96 42.35 41.89 40.49 41.38 40.14 41.49 41.63 41.67 40.82 40.53 39.65 40.91 43.16 46.42 47.46 48.94 50.06 50.58
52.43 51.53 50.93 49.36 47.98 46.95 46.46 48.45 48.82 47.26 44.39 48.16 43.59 40.16 39.63 40.55 41.71 40.00 40.59 40.29 39.92 39.56 40.09 40.33 39.95 39.03 38.58 40.12 41.89 45.11 46.15 48.19 49.64
52.46 52.25 51.47 50.32 49.27 47.53 47.09 49.22 48.93 46.84 46.23 41.57 43.07 43.00 43.12 39.41 37.50 40.20 39.03 40.03 40.42 39.40 40.07 39.78 39.60 37.73 38.02 40.90 43.20 43.86 45.19 47.21 48.39
52.16 52.08 51.51 50.49 49.77 48.92 48.04 47.57 48.01 49.12 46.29 42.19 40.58 39.36 39.99 41.49 39.68 36.72 36.33 38.76 39.50 39.40 38.88 38.49 37.37 36.74 37.06 37.73 40.57 43.05 44.31 45.95 47.13
MSLP
1015.98 1016.32 1016.57 1016.85 1016.95 1017.15 1017.36 1017.57 1017.76 1017.93 1018.12 1018.34 1018.53 1018.77 1018.97 1019.16 1019.22 1019.40 1019.52 1019.74 1019.88 1020.07 1020.23 1020.45 1020.77 1020.97 1021.17 1021.16 1021.13 1021.07 1021.03 1021.08 1021.12
1016.17 1016.47 1016.81 1016.86 1017.09 1017.22 1017.39 1017.52 1017.81 1018.10 1018.31 1018.35 1018.79 1019.13 1019.20 1019.32 1019.58 1019.75 1019.91 1019.96 1020.11 1020.26 1020.57 1020.83 1021.07 1021.26 1021.48 1021.45 1021.39 1021.36 1021.35 1021.38 1021.41
1016.41 1016.86 1017.08 1017.04 1017.08 1017.17 1017.32 1017.35 1017.83 1018.25 1018.58 1018.81 1018.97 1019.34 1019.55 1019.79 1020.03 1020.15 1020.21 1020.09 1020.23 1020.53 1020.76 1021.14 1021.38 1021.76 1021.62 1021.76 1021.78 1021.85 1021.89 1021.89 1021.82
1016.65 1017.01 1017.25 1017.25 1017.25 1017.23 1017.40 1017.60 1018.04 1018.44 1018.74 1018.86 1019.09 1019.58 1019.94 1020.16 1020.43 1020.47 1020.49 1020.24 1020.53 1020.91 1021.24 1021.45 1021.73 1021.92 1022.16 1022.17 1022.14 1022.25 1022.36 1022.38 1022.35
1016.80 1017.11 1017.26 1017.42 1017.43 1017.51 1017.58 1018.04 1018.41 1018.69 1018.85 1019.02 1019.34 1019.62 1019.98 1020.45 1020.70 1020.65 1020.69 1020.67 1020.90 1021.29 1021.73 1021.96 1022.27 1022.40 1022.51 1022.69 1022.69 1022.70 1022.79 1022.81 1022.93
1017.01 1017.29 1017.33 1017.41 1017.43 1017.73 1017.97 1018.27 1018.76 1019.14 1019.31 1019.46 1019.54 1019.86 1020.47 1020.76 1020.88 1020.99 1021.03 1021.11 1021.40 1021.87 1022.23 1022.51 1022.72 1022.82 1022.97 1023.01 1023.17 1023.25 1023.35 1023.40 1023.41
1017.23 1017.37 1017.46 1017.49 1017.60 1017.91 1018.23 1018.70 1019.06 1019.62 1019.79 1019.86 1019.95 1020.46 1020.85 1020.96 1021.25 1021.31 1021.39 1021.51 1021.84 1022.24 1022.73 1022.96 1023.10 1023.27 1023.37 1023.49 1023.60 1023.73 1023.80 1023.82 1023.82
1017.35 1017.68 1017.61 1017.73 1017.86 1018.15 1018.61 1019.09 1019.58 1020.10 1020.14 1020.36 1020.60 1020.80 1021.01 1021.31 1021.56 1021.65 1021.75 1021.86 1022.18 1022.77 1023.11 1023.23 1023.46 1023.63 1023.78 1023.93 1024.05 1024.14 1024.16 1024.15 1024.18
1017.55 1017.69 1017.95 1018.08 1018.03 1018.57 1019.04 1019.53 1019.90 1020.32 1020.37 1020.61 1020.97 1021.17 1021.36 1021.62 1021.77 1021.92 1022.11 1022.37 1022.71 1023.11 1023.33 1023.49 1023.70 1023.92 1024.15 1024.34 1024.45 1024.48 1024.49 1024.51 1024.51
1017.40 1017.67 1017.91 1018.35 1018.50 1018.75 1019.21 1019.75 1020.03 1020.41 1020.61 1020.84 1021.14 1021.63 1021.84 1021.98 1022.17 1022.36 1022.60 1022.80 1023.00 1023.33 1023.47 1023.74 1023.96 1024.25 1024.44 1024.61 1024.76 1024.80 1024.79 1024.75 1024.73
1016.82 1017.49 1017.85 1018.27 1018.73 1018.99 1019.39 1019.78 1020.17 1020.48 1020.66 1021.22 1021.51 1021.99 1022.22 1022.41 1022.64 1022.73 1023.00 1023.17 1023.34 1023.58 1023.83 1024.04 1024.21 1024.41 1024.62 1024.82 1024.99 1025.09 1025.09 1025.08 1025.06
1016.30 1016.82 1017.64 1017.90 1018.54 1019.01 1019.47 1019.95 1020.37 1020.76 1020.92 1021.48 1021.96 1022.33 1022.68 1022.95 1023.09 1023.30 1023.73 1023.85 1023.84 1024.14 1024.29 1024.41 1024.58 1024.77 1024.91 1025.09 1025.33 1025.51 1025.52 1025.47 1025.38
1016.62 1016.55 1017.20 1017.72 1018.39 1019.04 1019.55 1020.06 1020.69 1021.08 1021.45 1021.91 1022.15 1022.59 1023.06 1023.42 1023.54 1023.92 1024.28 1024.47 1024.66 1024.74 1024.83 1024.90 1024.96 1025.04 1025.19 1025.45 1025.69 1025.84 1025.89 1025.76 1025.70
1016.83 1016.72 1016.79 1017.64 1018.33 1019.04 1019.75 1020.23 1020.61 1021.25 1021.82 1022.29 1022.63 1022.95 1023.41 1023.72 1024.01 1024.36 1024.77 1025.04 1025.32 1025.57 1025.51 1025.53 1025.53 1025.61 1025.75 1025.90 1026.04 1026.05 1026.01 1025.92 1025.87
1017.12 1017.27 1016.85 1017.48 1018.35 1019.13 1019.63 1020.21 1020.81 1021.25 1021.88 1022.62 1023.39 1023.67 1023.91 1024.12 1024.50 1024.79 1025.06 1025.37 1025.62 1025.92 1026.14 1026.25 1026.21 1026.24 1026.37 1026.48 1026.44 1026.31 1026.24 1026.03 1025.93
1016.72 1016.98 1017.37 1017.89 1018.29 1019.01 1019.59 1020.28 1020.92 1021.81 1022.05 1022.84 1024.14 1024.63 1024.74 1024.74 1024.85 1025.05 1025.38 1025.67 1025.86 1026.07 1026.30 1026.56 1026.77 1026.82 1026.73 1026.94 1026.97 1026.76 1026.60 1026.20 1026.11
1014.78 1016.50 1017.58 1017.33 1018.27 1019.07 1019.51 1019.93 1021.13 1021.80 1022.02 1022.76 1023.79 1025.19 1025.46 1025.40 1025.36 1025.28 1025.41 1025.75 1025.86 1026.10 1026.41 1026.64 1026.87 1027.12 1027.29 1027.37 1027.30 1027.19 1026.97 1026.62 1026.48
1015.44 1016.48 1016.88 1016.76 1017.41 1018.98 1019.43 1019.73 1020.14 1021.13 1021.98 1022.03 1022.59 1024.47 1024.77 1025.28 1025.72 1025.68 1025.64 1025.88 1026.06 1026.22 1026.45 1026.83 1027.09 1027.41 1027.49 1027.57 1027.52 1027.43 1027.10 1026.71 1026.56
1015.11 1015.93 1016.42 1016.57 1016.93 1018.37 1019.15 1019.58 1019.99 1020.58 1021.30 1022.22 1022.40 1022.50 1023.22 1024.57 1025.59 1025.63 1025.85 1026.05 1026.25 1026.40 1026.53 1026.95 1027.28 1027.49 1027.65 1027.62 1027.56 1027.42 1027.31 1026.79 1026.61
1015.31 1015.81 1016.34 1017.10 1018.23 1018.10 1018.47 1019.69 1020.02 1020.23 1021.17 1021.71 1022.63 1022.97 1023.24 1023.77 1024.39 1025.25 1025.85 1026.29 1026.44 1026.41 1026.71 1027.02 1027.44 1027.50 1027.95 1027.76 1027.73 1027.58 1027.32 1026.98 1026.83
Wind_Speed
14 14 13 12 13 13 13 14 14 12 13 13 14 18 17 10 7 8 10 8 12 16 16 15 15 16 16 15 16 17 17 17 16
15 14 13 14 14 15 15 16 16 14 12 13 18 15 12 9 6 7 5 7 14 14 15 18 19 17 16 16 16 17 17 17 16
12 12 13 14 16 16 17 16 17 15 14 13 16 15 12 9 6 6 4 11 15 16 19 19 19 14 15 17 17 17 17 16 16
13 13 13 14 16 15 15 14 18 13 11 12 17 15 13 7 4 4 2 13 19 21 19 18 16 15 16 15 15 16 16 15 15
13 12 13 14 14 15 15 15 15 12 11 16 17 17 15 7 5 2 3 19 19 20 18 18 15 15 15 15 15 16 16 15 15
8 7 10 13 13 14 15 16 12 9 12 16 16 14 6 6 5 4 15 19 20 19 18 15 15 15 14 15 15 15 15 15 14
5 5 9 11 12 12 14 14 10 9 4 5 11 5 6 6 5 5 15 18 19 18 15 14 14 14 14 15 15 15 14 14 14
4 2 3 3 9 6 6 5 3 6 4 4 5 5 5 4 4 7 13 16 18 16 14 14 14 14 14 14 14 14 14 14 14
4 3 4 3 3 6 5 3 4 6 6 7 6 6 5 4 3 6 14 17 16 16 14 14 14 14 14 13 13 13 13 13 13
5 4 4 4 3 5 5 5 4 5 7 7 9 6 6 6 4 4 13 13 16 15 14 14 15 14 13 13 12 12 12 12 11
8 6 5 5 4 4 4 5 4 4 7 6 7 6 6 7 6 5 7 12 14 14 14 13 13 13 13 12 12 12 12 12 12
11 8 6 6 5 6 4 2 4 5 6 8 6 7 6 6 7 7 5 6 13 13 12 12 12 12 12 13 13 12 11 11 11
9 9 8 5 5 5 4 4 5 6 8 7 6 6 6 7 7 6 5 5 5 8 12 11 11 12 13 12 12 12 12 11 11
8 8 7 6 5 5 5 2 7 7 7 7 6 5 6 6 6 7 6 6 5 4 10 11 12 12 12 12 11 11 10 10 11
8 4 7 7 6 4 4 6 3 6 8 8 6 4 4 4 4 5 5 5 6 5 5 4 5 11 11 11 11 11 11 10 11
4 5 6 4 7 7 7 5 10 4 9 7 6 4 4 4 4 4 4 5 4 5 5 4 3 4 10 10 10 12 11 11 10
14 7 6 8 6 7 8 10 4 3 3 7 7 3 2 3 0 3 5 6 4 5 5 5 5 5 4 6 10 12 13 12 11
10 13 12 10 7 7 7 9 9 10 1 11 6 4 4 4 1 3 3 5 3 4 5 5 5 5 4 5 6 10 11 10 11
10 8 5 2 7 7 6 7 7 7 9 2 3 3 5 4 3 1 1 2 5 5 3 5 4 5 3 5 6 9 11 11 12
13 13 12 11 8 9 8 5 7 8 6 3 3 2 3 2 4 4 3 1 1 2 4 4 4 5 3 3 5 9 11 12 12
Wind_Direction
137 132 132 136 138 139 144 146 147 140 138 137 126 120 113 104 92 93 94 88 109 104 100 98 97 88 78 78 79 77 76 74 71
139 133 149 148 145 152 148 151 148 136 138 149 129 122 106 99 89 96 101 117 121 108 98 101 97 88 84 85 83 79 76 75 73
146 156 159 156 154 153 153 157 129 141 122 127 125 117 110 98 91 94 106 137 120 113 112 102 91 90 89 79 77 73 70 69 70
156 162 166 162 164 153 152 145 137 132 121 113 133 121 120 102 92 95 106 121 122 109 98 98 96 92 85 85 79 76 73 71 71
169 164 170 165 171 149 146 142 135 133 101 124 120 116 89 90 92 115 146 116 106 98 96 89 96 93 86 85 88 82 75 70 66
152 164 179 172 171 166 144 135 142 114 101 120 110 99 100 93 80 92 111 116 107 101 94 97 93 91 97 85 82 80 76 73 70
151 175 182 173 159 145 145 146 143 104 86 103 97 104 114 103 101 100 108 105 104 99 99 104 101 96 93 87 81 78 75 73 69
145 175 171 161 140 145 121 131 101 109 112 103 103 101 95 95 99 106 107 107 105 108 113 106 101 98 91 85 82 77 74 71 67
158 154 158 136 127 124 129 130 123 109 118 115 103 100 101 91 78 100 98 107 117 118 114 111 104 97 91 87 82 77 72 67 63
156 158 146 146 124 145 144 145 130 117 120 119 115 96 97 93 84 106 113 127 125 124 118 112 108 103 95 89 82 75 68 63 57
163 160 157 148 155 146 148 156 140 131 125 105 110 105 96 91 89 83 73 111 118 116 109 109 105 103 97 89 79 71 63 54 45
166 161 163 162 155 150 138 130 101 111 124 114 112 108 94 96 90 85 78 65 84 106 113 106 101 98 98 90 76 64 54 46 39
173 165 168 162 146 143 149 140 108 123 131 126 123 108 100 99 92 90 85 70 59 83 100 100 101 97 85 79 70 57 44 39 30
180 174 162 151 143 139 152 127 132 125 125 122 107 106 113 116 109 103 98 92 86 72 97 88 85 89 82 71 60 51 43 36 26
191 178 153 146 138 139 134 132 86 125 128 115 86 73 91 110 119 120 117 122 120 108 90 72 80 85 78 67 51 42 33 27 22
148 139 128 140 151 153 150 108 125 80 124 105 81 47 43 103 133 133 133 138 138 127 121 103 74 66 85 64 44 31 22 20 15
142 150 170 143 126 143 153 141 122 107 186 135 120 119 32 14 102 135 150 153 145 136 125 120 113 100 89 65 45 27 13 8 1
157 177 176 152 140 165 167 156 151 160 184 160 134 143 188 137 177 216 180 157 145 131 129 116 109 95 83 71 42 21 6 357 353
145 149 136 81 146 160 172 174 158 149 162 78 57 79 138 167 152 126 202 157 152 144 141 124 120 113 105 81 43 19 0 357 349
168 167 172 172 190 175 162 165 164 168 155 140 140 92 58 71 137 160 159 60 179 139 141 125 115 105 116 97 22 16 1 355 342